Rural Retreat, VA

10:19 PM EST on February 27, 2017 (GMT -0500)
Mountain Empire

Weather History for KMKJ - September, 2014

Change the Weather History Date:

Monday, September 1, 2014

  Actual Average (KBLF) Record (KBLF)
Temperature  
Mean Temperature - -  
Max Temperature - 75 °F 90 °F (2011)
Min Temperature - 60 °F 48 °F (1999)
Moisture  
Dew Point -    
Average Humidity    
Maximum Humidity    
Minimum Humidity    
Precipitation  
Precipitation 0.00 in - - ()
Sea Level Pressure  
Sea Level Pressure 30.20 in    
Wind  
Wind Speed 5 mph (WSW)    
Max Wind Speed 16 mph    
Max Gust Speed 24 mph    
Visibility 9 miles    
Events      
Averages and records for this station are not official NWS values.
T = Trace of Precipitation, MM = Missing Value Source: NWS Daily Summary

Daily Weather History Graph

Daily Weather History Graph

Search for Another Location

Airport or City:

Trip Planner

Search our weather history database for the weather conditions in past years. The results will help you decide how hot, cold, wet, or windy it might be!

Date:

Astronomy

Sep. 01, 2014 Rise Set
Actual Time 6:56 AM EDT 7:53 PM EDT
Civil Twilight 6:29 AM EDT 8:20 PM EDT
Nautical Twilight 5:58 AM EDT 8:51 PM EDT
Astronomical Twilight 5:25 AM EDT 9:24 PM EDT
Moon 1:30 PM EDT (9/1) No Moon Set
Length of Visible Light 13h 50m
Length of Day
12h 57m
Waxing Crescent, 42% of the Moon is Illuminated
Sep 1
Waxing Crescent
Sep 2
First Quarter
Sep 8
Full
Sep 15
Last Quarter
Sep 24
New

Hourly Weather History & Observations

Time (EDT) Temp. Dew Point Humidity Pressure Visibility Wind Dir Wind Speed Gust Speed Precip Events Conditions
12:15 AM - - N/A% 30.21 in 10.0 mi Calm Calm - N/A   Scattered Clouds
12:35 AM - - N/A% 30.20 in 10.0 mi Calm Calm - N/A   Scattered Clouds
1:15 AM - - N/A% 30.21 in 7.0 mi Calm Calm - N/A   Mostly Cloudy
1:35 AM - - N/A% 30.21 in 7.0 mi Calm Calm - N/A   Mostly Cloudy
2:15 AM - - N/A% 30.20 in 7.0 mi Calm Calm - N/A   Mostly Cloudy
2:35 AM - - N/A% 30.20 in 7.0 mi West 4.6 mph - N/A   Mostly Cloudy
2:55 AM - - N/A% 30.20 in 5.0 mi WSW 3.5 mph - N/A   Haze
3:15 AM - - N/A% 30.20 in 3.0 mi WSW 5.8 mph - N/A   Scattered Clouds
3:35 AM - - N/A% 30.20 in 1.0 mi West 5.8 mph - N/A   Overcast
3:55 AM - - N/A% 30.20 in 5.0 mi West 8.1 mph - N/A   Haze
4:15 AM - - N/A% 30.20 in 10.0 mi SW 5.8 mph - N/A   Scattered Clouds
4:35 AM - - N/A% 30.20 in 10.0 mi WSW 4.6 mph - N/A   Scattered Clouds
4:55 AM - - N/A% 30.21 in 10.0 mi West 6.9 mph - N/A   Scattered Clouds
5:15 AM - - N/A% 30.21 in 10.0 mi West 8.1 mph - N/A   Mostly Cloudy
5:35 AM - - N/A% 30.21 in 10.0 mi WSW 9.2 mph - N/A   Mostly Cloudy
5:55 AM - - N/A% 30.21 in 7.0 mi WSW 9.2 mph - N/A   Mostly Cloudy
6:15 AM - - N/A% 30.21 in 10.0 mi WSW 9.2 mph - N/A   Scattered Clouds
6:35 AM - - N/A% 30.22 in 10.0 mi WSW 8.1 mph - N/A   Scattered Clouds
6:55 AM - - N/A% 30.22 in 7.0 mi WSW 8.1 mph - N/A   Mostly Cloudy
7:15 AM - - N/A% 30.22 in 7.0 mi West 8.1 mph - N/A   Mostly Cloudy
7:35 AM - - N/A% 30.22 in 10.0 mi WSW 6.9 mph - N/A   Clear
7:55 AM - - N/A% 30.23 in 10.0 mi SW 3.5 mph - N/A   Scattered Clouds
8:15 AM - - N/A% 30.23 in 7.0 mi WSW 4.6 mph - N/A   Mostly Cloudy
8:35 AM - - N/A% 30.23 in 7.0 mi WSW 6.9 mph - N/A   Mostly Cloudy
8:55 AM - - N/A% 30.23 in 7.0 mi WSW 6.9 mph - N/A   Mostly Cloudy
9:15 AM - - N/A% 30.22 in 10.0 mi WSW 5.8 mph - N/A   Overcast
9:35 AM - - N/A% 30.22 in 10.0 mi West 9.2 mph 19.6 mph N/A   Mostly Cloudy
9:55 AM - - N/A% 30.23 in 10.0 mi West 16.1 mph 20.7 mph N/A   Scattered Clouds
10:15 AM - - N/A% 30.23 in 10.0 mi WSW 11.5 mph 24.2 mph N/A   Scattered Clouds
10:35 AM - - N/A% 30.23 in 10.0 mi West 11.5 mph - N/A   Scattered Clouds
10:55 AM - - N/A% 30.23 in 10.0 mi WSW 10.4 mph 17.3 mph N/A   Mostly Cloudy
11:15 AM - - N/A% 30.23 in 10.0 mi SW 13.8 mph 17.3 mph N/A   Mostly Cloudy
11:35 AM - - N/A% 30.23 in 10.0 mi WSW 10.4 mph 18.4 mph N/A   Overcast
12:15 PM - - N/A% 30.23 in 10.0 mi WSW 9.2 mph 18.4 mph N/A   Mostly Cloudy
12:35 PM - - N/A% 30.23 in 10.0 mi West 12.7 mph 19.6 mph N/A   Overcast
12:55 PM - - N/A% 30.23 in 10.0 mi West 13.8 mph 17.3 mph N/A   Mostly Cloudy
1:35 PM - - N/A% 30.23 in 10.0 mi WSW 10.4 mph - N/A   Overcast
1:55 PM - - N/A% 30.22 in 10.0 mi SW 9.2 mph - N/A   Mostly Cloudy
2:15 PM - - N/A% 30.22 in 10.0 mi WSW 5.8 mph - N/A   Mostly Cloudy
2:35 PM - - N/A% 30.21 in 10.0 mi SW 8.1 mph 16.1 mph N/A   Mostly Cloudy
2:55 PM - - N/A% 30.21 in 10.0 mi WSW 12.7 mph 20.7 mph N/A   Overcast
3:15 PM - - N/A% 30.20 in 10.0 mi West 9.2 mph 17.3 mph N/A   Mostly Cloudy
3:35 PM - - N/A% 30.19 in 10.0 mi SW 8.1 mph - N/A   Mostly Cloudy
4:15 PM - - N/A% 30.17 in 10.0 mi West 13.8 mph 19.6 mph N/A   Clear
4:35 PM - - N/A% 30.17 in 10.0 mi West 13.8 mph - N/A   Scattered Clouds
4:55 PM - - N/A% 30.17 in 10.0 mi WSW 11.5 mph - N/A   Scattered Clouds
5:15 PM - - N/A% 30.17 in 10.0 mi West 13.8 mph 18.4 mph N/A   Scattered Clouds
5:35 PM - - N/A% 30.18 in 10.0 mi WSW 10.4 mph 18.4 mph N/A   Clear
5:55 PM - - N/A% 30.17 in 10.0 mi West 12.7 mph 18.4 mph N/A   Clear
6:15 PM - - N/A% 30.17 in 10.0 mi WSW 6.9 mph - N/A   Clear
6:35 PM - - N/A% 30.16 in 10.0 mi West 5.8 mph - N/A   Clear
7:15 PM - - N/A% 30.17 in 10.0 mi SW 3.5 mph - N/A   Clear
7:35 PM - - N/A% 30.17 in 10.0 mi Calm Calm - N/A   Clear
7:55 PM - - N/A% 30.18 in 10.0 mi Calm Calm - N/A   Clear
8:15 PM - - N/A% 30.18 in 10.0 mi Calm Calm - N/A   Clear
8:35 PM - - N/A% 30.18 in 10.0 mi Calm Calm - N/A   Clear
8:55 PM - - N/A% 30.19 in 10.0 mi Calm Calm - N/A   Scattered Clouds
9:15 PM - - N/A% 30.19 in 10.0 mi Calm Calm - N/A   Scattered Clouds
9:35 PM - - N/A% 30.20 in 10.0 mi Calm Calm - N/A   Clear
10:15 PM - - N/A% 30.20 in 10.0 mi Calm Calm - N/A   Clear
10:35 PM - - N/A% 30.20 in 7.0 mi Calm Calm - N/A   Clear
10:55 PM - - N/A% 30.21 in 7.0 mi Calm Calm - N/A   Clear
11:15 PM - - N/A% 30.21 in 7.0 mi Calm Calm - N/A   Scattered Clouds
11:35 PM - - N/A% 30.21 in 7.0 mi Calm Calm - N/A   Scattered Clouds
11:55 PM - - N/A% 30.20 in 7.0 mi Calm Calm - N/A   Mostly Cloudy